STARLINK-4093 (53157 NORAD) Tracking and Keplerian Element Data

This shows tracking and keplerian element data for the satellite.

Feedback or suggestion? Click here.




ElementValue
Catalog53157
NameSTARLINK-4093
Epoch Orbit1185
Epoch Day270.25001157
Epoch Year2022
RAAN58.0988
Inclination53.2173
Eccentricity0.000129
Argument of Perigee59.868
Mean Anonmoly349.0045
Mean Motion15.18540105
Decay Rate-0.0105992
L11 53157U 22083AB 22270.25001157 -.01059920 00000+0 -55394-1 0 9994
L22 53157 53.2173 58.0988 0001290 59.8680 349.0045 15.18540105 11850

Live tracking and technical data element details for STARLINK-4093 (NORAD 53157). STARLINK-4093 can be tracked NOW for your location showing map with azimuth and elevation plus other details from your city location.

Track the satellite on the map from your city or location and see movement details for azimuth, elevation, latitude, longitude, range, height, and movement on the map or in text.







IsCatalogInMostPopularTable: catalog: 53157, numindb: 7
Update: records affected: 1



GetName: 53157 STARLINK-4093

Hit Count: updated at: Fri, 30 Sep 2022 02:09:37 GMT